Location: Cheching
(60.0667°N, 164.2167°W)
Time: 15:23:20
(UTC+00:00)

O/OREOS (USA 219) - Pass Details

Date: 21 January 2021
Orbit: 621 x 646 km, 72.0° (Epoch: 22 May)

Event Time Altitude Azimuth Distance (km) Brightness Sun altitude
Rises 04:53:04 0° 314° (NW) 2,959 ? -15.3°
Reaches altitude 10° 04:57:33 10° 273° (W) 2,034 ? -15.8°
Maximum altitude 04:58:12 10° 265° (W) 2,013 ? -15.9°
Drops below altitude 10° 04:58:51 10° 256° (WSW) 2,029 ? -16.0°
Sets 05:03:18 0° 215° (SW) 2,921 ? -16.5°
